| time (UTC) | temp C | wind direction | speed KPH | gust KPH | rain 1hr cm | rain 24hr cm | rain mn cm | humidity % | barometer mb |
| 20260905063008 | 26 | 283 | 0.0 | 0.0 | 0.00 | 0.00 | 0.00 | 79 | 1013.4 |
| 20260905062511 | 26 | 283 | 0.0 | 0.0 | 0.00 | 0.00 | 0.00 | 80 | 1013.5 |
| 20260905062008 | 26 | 283 | 0.0 | 0.0 | 0.00 | 0.00 | 0.00 | 80 | 1013.4 |
| 20260905061512 | 26 | 283 | 0.0 | 0.0 | 0.00 | 0.00 | 0.00 | 79 | 1013.5 |
| 20260905061006 | 26 | 283 | 0.0 | 0.0 | 0.00 | 0.00 | 0.00 | 80 | 1013.4 |
| 20260905060506 | 26 | 283 | 0.0 | 0.0 | 0.00 | 0.00 | 0.00 | 80 | 1013.5 |
| 20260905060015 | 26 | 283 | 0.0 | 0.0 | 0.00 | 0.00 | 0.00 | 80 | 1013.5 |
| 20260905055507 | 26 | 283 | 0.0 | 0.0 | 0.00 | 0.00 | 0.00 | 80 | 1013.5 |
| 20260905055004 | 26 | 283 | 0.0 | 0.0 | 0.00 | 0.00 | 0.00 | 80 | 1013.5 |
| 20260905054511 | 26 | 283 | 0.0 | 0.0 | 0.00 | 0.00 | 0.00 | 79 | 1013.5 |
| 20260905054009 | 26 | 283 | 0.0 | 0.0 | 0.00 | 0.00 | 0.00 | 79 | 1013.4 |
| 20260905053507 | 26 | 283 | 0.0 | 0.0 | 0.00 | 0.00 | 0.00 | 79 | 1013.4 |
| 20260905053025 | 26 | 283 | 0.0 | 0.0 | 0.00 | 0.00 | 0.00 | 79 | 1013.3 |
| 20260905052510 | 26 | 283 | 0.0 | 0.0 | 0.00 | 0.00 | 0.00 | 79 | 1013.3 |
| 20260905052006 | 26 | 283 | 0.0 | 0.0 | 0.00 | 0.00 | 0.00 | 80 | 1013.2 |
| 20260905051514 | 26 | 283 | 0.0 | 0.0 | 0.00 | 0.00 | 0.00 | 80 | 1013.3 |
| 20260905051005 | 26 | 283 | 0.0 | 0.0 | 0.00 | 0.00 | 0.00 | 80 | 1013.3 |
| 20260905050509 | 26 | 283 | 0.0 | 0.0 | 0.00 | 0.00 | 0.00 | 79 | 1013.2 |
| 20260905050012 | 26 | 283 | 0.0 | 0.0 | 0.00 | 0.00 | 0.00 | 80 | 1013.2 |
| 20260905045508 | 26 | 283 | 0.0 | 0.0 | 0.00 | 0.00 | 0.00 | 79 | 1013.3 |
| 20260905045008 | 26 | 283 | 0.0 | 0.0 | 0.00 | 0.00 | 0.00 | 79 | 1013.3 |
| 20260905044513 | 27 | 283 | 0.0 | 0.0 | 0.00 | 0.00 | 0.00 | 79 | 1013.2 |
| 20260905044011 | 27 | 283 | 0.0 | 0.0 | 0.00 | 0.00 | 0.00 | 78 | 1013.0 |
| 20260905043510 | 27 | 283 | 0.0 | 0.0 | 0.00 | 0.00 | 0.00 | 78 | 1013.0 |
| 20260905043012 | 27 | 283 | 0.0 | 0.0 | 0.00 | 0.00 | 0.00 | 78 | 1013.0 |
| 20260905042510 | 27 | 283 | 0.0 | 0.0 | 0.00 | 0.00 | 0.00 | 77 | 1013.0 |
| 20260905042010 | 27 | 283 | 0.0 | 0.0 | 0.00 | 0.00 | 0.00 | 76 | 1012.9 |
| 20260905041516 | 27 | 283 | 0.0 | 0.0 | 0.00 | 0.00 | 0.00 | 76 | 1012.9 |
| 20260905041008 | 27 | 283 | 0.0 | 0.0 | 0.00 | 0.00 | 0.00 | 76 | 1012.9 |
| 20260905040508 | 27 | 283 | 0.0 | 0.0 | 0.00 | 0.00 | 0.00 | 76 | 1012.9 |
| 20260905040018 | 27 | 283 | 0.0 | 3.2 | 0.00 | 0.00 | 0.00 | 76 | 1012.9 |
| 20260905035511 | 27 | 283 | 0.0 | 3.2 | 0.00 | 0.00 | 0.00 | 76 | 1012.9 |
| 20260905035009 | 28 | 283 | 0.0 | 3.2 | 0.00 | 0.00 | 0.00 | 75 | 1012.9 |
| 20260905034512 | 28 | 283 | 0.0 | 0.0 | 0.00 | 0.00 | 0.00 | 75 | 1012.8 |
| 20260905034009 | 28 | 283 | 0.0 | 0.0 | 0.00 | 0.00 | 0.00 | 74 | 1012.8 |
| 20260905033508 | 28 | 284 | 0.0 | 0.0 | 0.00 | 0.00 | 0.00 | 74 | 1012.8 |
| 20260905033016 | 28 | 283 | 0.0 | 1.6 | 0.00 | 0.00 | 0.00 | 75 | 1012.7 |
| 20260905032510 | 28 | 283 | 0.0 | 3.2 | 0.00 | 0.00 | 0.00 | 74 | 1012.8 |
| 20260905032009 | 28 | 283 | 0.0 | 3.2 | 0.00 | 0.00 | 0.00 | 74 | 1012.7 |
| 20260905031519 | 28 | 283 | 0.0 | 3.2 | 0.00 | 0.00 | 0.00 | 73 | 1012.6 |
| 20260905031012 | 28 | 283 | 0.0 | 3.2 | 0.00 | 0.00 | 0.00 | 73 | 1012.6 |
| 20260905030514 | 28 | 275 | 0.0 | 3.2 | 0.00 | 0.00 | 0.00 | 73 | 1012.6 |
| 20260905030020 | 28 | 246 | 0.0 | 0.0 | 0.00 | 0.00 | 0.00 | 73 | 1012.5 |
| 20260905025511 | 28 | 246 | 0.0 | 0.0 | 0.00 | 0.00 | 0.00 | 73 | 1012.5 |
| 20260905025011 | 28 | 246 | 0.0 | 1.6 | 0.00 | 0.00 | 0.00 | 74 | 1012.5 |
| 20260905024528 | 29 | 246 | 0.0 | 1.6 | 0.00 | 0.00 | 0.00 | 73 | 1012.4 |
| 20260905024011 | 29 | 228 | 0.0 | 0.0 | 0.00 | 0.00 | 0.00 | 73 | 1012.5 |
| 20260905023508 | 29 | 228 | 0.0 | 0.0 | 0.00 | 0.00 | 0.00 | 73 | 1012.4 |
| 20260905023016 | 29 | 228 | 0.0 | 0.0 | 0.00 | 0.00 | 0.00 | 72 | 1012.4 |
| 20260905022511 | 29 | 228 | 0.0 | 0.0 | 0.00 | 0.00 | 0.00 | 72 | 1012.4 |
| 20260905022010 | 29 | 228 | 0.0 | 0.0 | 0.00 | 0.00 | 0.00 | 72 | 1012.4 |
| 20260905021515 | 29 | 228 | 0.0 | 0.0 | 0.00 | 0.00 | 0.00 | 71 | 1012.5 |
| 20260905021011 | 30 | 228 | 0.0 | 3.2 | 0.00 | 0.00 | 0.00 | 71 | 1012.4 |
| 20260905020515 | 30 | 228 | 0.0 | 3.2 | 0.00 | 0.00 | 0.00 | 72 | 1012.3 |
| 20260905020030 | 30 | 228 | 0.0 | 3.2 | 0.00 | 0.00 | 0.00 | 72 | 1012.3 |
| 20260905015511 | 30 | 228 | 0.0 | 0.0 | 0.00 | 0.00 | 0.00 | 71 | 1012.3 |
| 20260905015013 | 30 | 228 | 0.0 | 0.0 | 0.00 | 0.00 | 0.00 | 69 | 1012.2 |
| 20260905014516 | 30 | 228 | 0.0 | 0.0 | 0.00 | 0.00 | 0.00 | 69 | 1012.0 |
| 20260905014012 | 30 | 228 | 0.0 | 0.0 | 0.00 | 0.00 | 0.00 | 69 | 1011.8 |
| 20260905013511 | 30 | 228 | 0.0 | 0.0 | 0.00 | 0.00 | 0.00 | 69 | 1011.8 |
| 20260905013020 | 30 | 228 | 0.0 | 0.0 | 0.00 | 0.00 | 0.00 | 69 | 1011.7 |
| 20260905012510 | 30 | 228 | 0.0 | 0.0 | 0.00 | 0.00 | 0.00 | 69 | 1011.7 |
| 20260905012016 | 30 | 228 | 0.0 | 0.0 | 0.00 | 0.00 | 0.00 | 69 | 1011.7 |
| 20260905011521 | 30 | 228 | 0.0 | 0.0 | 0.00 | 0.00 | 0.00 | 69 | 1011.6 |
| 20260905011013 | 30 | 228 | 0.0 | 0.0 | 0.00 | 0.00 | 0.00 | 69 | 1011.6 |
| 20260905010512 | 30 | 228 | 0.0 | 0.0 | 0.00 | 0.00 | 0.00 | 69 | 1011.6 |
| 20260905010019 | 30 | 228 | 0.0 | 0.0 | 0.00 | 0.00 | 0.00 | 69 | 1011.5 |
| 20260905005512 | 30 | 228 | 0.0 | 0.0 | 0.00 | 0.00 | 0.00 | 69 | 1011.5 |
| 20260905005020 | 30 | 228 | 0.0 | 0.0 | 0.00 | 0.00 | 0.00 | 69 | 1011.5 |
| 20260905004520 | 30 | 228 | 0.0 | 0.0 | 0.00 | 0.00 | 0.00 | 69 | 1011.5 |
| 20260905004011 | 31 | 228 | 0.0 | 0.0 | 0.00 | 0.00 | 0.00 | 69 | 1011.6 |
| 20260905003510 | 31 | 228 | 0.0 | 0.0 | 0.00 | 0.00 | 0.00 | 68 | 1011.5 |
| 20260905003019 | 31 | 228 | 0.0 | 0.0 | 0.00 | 0.00 | 0.00 | 69 | 1011.5 |
| 20260905002510 | 31 | 228 | 0.0 | 0.0 | 0.00 | 0.00 | 0.00 | 69 | 1011.4 |
| 20260905002017 | 31 | 228 | 0.0 | 3.2 | 0.00 | 0.00 | 0.00 | 67 | 1011.4 |
| 20260905001521 | 31 | 228 | 0.0 | 3.2 | 0.00 | 0.00 | 0.00 | 64 | 1011.4 |
| 20260905001013 | 32 | 228 | 0.0 | 3.2 | 0.00 | 0.00 | 0.00 | 65 | 1011.4 |
| 20260905000513 | 32 | 224 | 0.0 | 8.0 | 0.00 | 0.00 | 0.00 | 66 | 1011.5 |
| 20260905000024 | 32 | 196 | 1.6 | 8.0 | 0.00 | 0.00 | 0.00 | 64 | 1011.4 |
| 20260904235511 | 32 | 319 | 0.0 | 3.2 | 0.00 | 0.00 | 0.00 | 66 | 1011.5 |
| 20260904235017 | 32 | 319 | 0.0 | 1.6 | 0.00 | 0.00 | 0.00 | 66 | 1011.5 |
| 20260904234525 | 31 | 323 | 0.0 | 3.2 | 0.00 | 0.00 | 0.00 | 67 | 1011.5 |
| 20260904234013 | 31 | 323 | 0.0 | 3.2 | 0.00 | 0.00 | 0.00 | 67 | 1011.4 |
| 20260904233513 | 31 | 323 | 0.0 | 3.2 | 0.00 | 0.00 | 0.00 | 63 | 1011.5 |
| 20260904233023 | 32 | 323 | 0.0 | 3.2 | 0.00 | 0.00 | 0.00 | 63 | 1011.6 |
| 20260904232512 | 32 | 323 | 0.0 | 3.2 | 0.00 | 0.00 | 0.00 | 63 | 1011.6 |
| 20260904232017 | 32 | 133 | 0.0 | 3.2 | 0.00 | 0.00 | 0.00 | 61 | 1011.6 |
| 20260904231526 | 33 | 138 | 0.0 | 3.2 | 0.00 | 0.00 | 0.00 | 61 | 1011.6 |
| 20260904231014 | 33 | 138 | 0.0 | 4.8 | 0.00 | 0.00 | 0.00 | 60 | 1011.6 |
| 20260904230517 | 34 | 146 | 1.6 | 4.8 | 0.00 | 0.00 | 0.00 | 57 | 1011.7 |
| 20260904230026 | 33 | 243 | 1.6 | 4.8 | 0.00 | 0.00 | 0.00 | 58 | 1011.7 |
| 20260904225515 | 33 | 265 | 1.6 | 4.8 | 0.00 | 0.00 | 0.00 | 56 | 1011.7 |
| 20260904225020 | 33 | 267 | 1.6 | 4.8 | 0.00 | 0.00 | 0.00 | 57 | 1011.7 |
| 20260904224527 | 33 | 265 | 0.0 | 3.2 | 0.00 | 0.00 | 0.00 | 55 | 1011.6 |
| 20260904224014 | 33 | 291 | 0.0 | 3.2 | 0.00 | 0.00 | 0.00 | 61 | 1011.6 |
| 20260904223514 | 33 | 284 | 0.0 | 3.2 | 0.00 | 0.00 | 0.00 | 59 | 1011.6 |
| 20260904223027 | 33 | 288 | 0.0 | 3.2 | 0.00 | 0.00 | 0.00 | 58 | 1011.7 |
| 20260904222517 | 34 | 240 | 1.6 | 6.4 | 0.00 | 0.00 | 0.00 | 55 | 1011.7 |
| 20260904222016 | 34 | 189 | 1.6 | 6.4 | 0.00 | 0.00 | 0.00 | 54 | 1011.7 |
| 20260904221528 | 35 | 293 | 1.6 | 3.2 | 0.00 | 0.00 | 0.00 | 54 | 1011.6 |
| 20260904221017 | 34 | 68 | 0.0 | 3.2 | 0.00 | 0.00 | 0.00 | 58 | 1011.6 |
| 20260904220514 | 34 | 173 | 0.0 | 8.0 | 0.00 | 0.00 | 0.00 | 57 | 1011.6 |
| 20260904220029 | 34 | 327 | 0.0 | 8.0 | 0.00 | 0.00 | 0.00 | 55 | 1011.6 |
| 20260904215513 | 35 | 257 | 1.6 | 6.4 | 0.00 | 0.00 | 0.00 | 54 | 1011.5 |
| 20260904215021 | 35 | 174 | 1.6 | 4.8 | 0.00 | 0.00 | 0.00 | 56 | 1011.5 |
| 20260904214526 | 35 | 330 | 1.6 | 6.4 | 0.00 | 0.00 | 0.00 | 55 | 1011.6 |
| 20260904214012 | 35 | 263 | 3.2 | 6.4 | 0.00 | 0.00 | 0.00 | 53 | 1011.5 |
| 20260904213520 | 35 | 275 | 3.2 | 6.4 | 0.00 | 0.00 | 0.00 | 53 | 1011.5 |
| 20260904213029 | 35 | 253 | 1.6 | 12.9 | 0.00 | 0.00 | 0.00 | 54 | 1011.5 |
| 20260904212507 | 35 | 281 | 4.8 | 11.3 | 0.00 | 0.00 | 0.00 | 53 | 1011.5 |
| 20260904212001 | 35 | 216 | 1.6 | 11.3 | 0.00 | 0.00 | 0.00 | 53 | 1011.4 |
| 20260904211503 | 35 | 223 | 1.6 | 11.3 | 0.00 | 0.00 | 0.00 | 53 | 1011.4 |
| 20260904211012 | 35 | 239 | 3.2 | 9.7 | 0.00 | 0.00 | 0.00 | 53 | 1011.6 |
| 20260904210503 | 35 | 88 | 1.6 | 6.4 | 0.00 | 0.00 | 0.00 | 53 | 1011.6 |
| 20260904210008 | 35 | 313 | 1.6 | 6.4 | 0.00 | 0.00 | 0.00 | 55 | 1011.6 |
| 20260904205506 | 35 | 271 | 1.6 | 6.4 | 0.00 | 0.00 | 0.00 | 55 | 1011.5 |
| 20260904205006 | 35 | 255 | 1.6 | 6.4 | 0.00 | 0.00 | 0.00 | 53 | 1011.5 |
| 20260904204503 | 35 | 190 | 1.6 | 9.7 | 0.00 | 0.00 | 0.00 | 52 | 1011.5 |
| 20260904204003 | 35 | 260 | 4.8 | 12.9 | 0.00 | 0.00 | 0.00 | 53 | 1011.5 |
| 20260904203502 | 35 | 163 | 1.6 | 12.9 | 0.00 | 0.00 | 0.00 | 55 | 1011.6 |
| 20260904203004 | 35 | 294 | 1.6 | 6.4 | 0.00 | 0.00 | 0.00 | 55 | 1011.7 |
| 20260904202502 | 35 | 11 | 3.2 | 6.4 | 0.00 | 0.00 | 0.00 | 53 | 1011.7 |
| 20260904202005 | 34 | 351 | 1.6 | 6.4 | 0.00 | 0.00 | 0.00 | 53 | 1011.8 |
| 20260904201511 | 35 | 195 | 3.2 | 6.4 | 0.00 | 0.00 | 0.00 | 53 | 1011.8 |
| 20260904201003 | 35 | 321 | 1.6 | 6.4 | 0.00 | 0.00 | 0.00 | 58 | 1011.8 |
| 20260904200505 | 35 | 236 | 1.6 | 6.4 | 0.00 | 0.00 | 0.00 | 54 | 1011.8 |
| 20260904200018 | 35 | 110 | 1.6 | 6.4 | 0.00 | 0.00 | 0.00 | 54 | 1011.8 |
| 20260904195503 | 35 | 113 | 1.6 | 9.7 | 0.00 | 0.00 | 0.00 | 54 | 1011.9 |
| 20260904195017 | 35 | 303 | 1.6 | 9.7 | 0.00 | 0.00 | 0.00 | 55 | 1011.9 |
| 20260904194512 | 35 | 299 | 1.6 | 6.4 | 0.00 | 0.00 | 0.00 | 58 | 1011.9 |
| 20260904194011 | 34 | 230 | 1.6 | 9.7 | 0.00 | 0.00 | 0.00 | 55 | 1011.9 |
| 20260904193515 | 34 | 118 | 3.2 | 9.7 | 0.00 | 0.00 | 0.00 | 55 | 1012.0 |
| 20260904193003 | 34 | 161 | 3.2 | 9.7 | 0.00 | 0.00 | 0.00 | 55 | 1012.0 |
| 20260904192502 | 34 | 315 | 3.2 | 6.4 | 0.00 | 0.00 | 0.00 | 56 | 1012.0 |
| 20260904192004 | 34 | 319 | 1.6 | 6.4 | 0.00 | 0.00 | 0.00 | 54 | 1012.1 |
| 20260904191504 | 34 | 128 | 1.6 | 6.4 | 0.00 | 0.00 | 0.00 | 55 | 1012.1 |
| 20260904191007 | 34 | 182 | 3.2 | 9.7 | 0.00 | 0.00 | 0.00 | 54 | 1012.1 |
| 20260904190506 | 34 | 333 | 3.2 | 9.7 | 0.00 | 0.00 | 0.00 | 56 | 1012.1 |
| 20260904190013 | 35 | 275 | 1.6 | 4.8 | 0.00 | 0.00 | 0.00 | 56 | 1012.1 |
| 20260904185506 | 34 | 144 | 1.6 | 9.7 | 0.00 | 0.00 | 0.00 | 56 | 1012.1 |
| 20260904185007 | 33 | 45 | 3.2 | 9.7 | 0.00 | 0.00 | 0.00 | 56 | 1012.1 |
| 20260904184521 | 33 | 293 | 0.0 | 9.7 | 0.00 | 0.00 | 0.00 | 56 | 1012.3 |
| 20260904184013 | 33 | 345 | 3.2 | 9.7 | 0.00 | 0.00 | 0.00 | 58 | 1012.3 |
| 20260904183504 | 33 | 286 | 4.8 | 9.7 | 0.00 | 0.00 | 0.00 | 55 | 1012.3 |
| 20260904183016 | 33 | 281 | 3.2 | 6.4 | 0.00 | 0.00 | 0.00 | 55 | 1012.4 |
| 20260904182514 | 33 | 196 | 1.6 | 4.8 | 0.00 | 0.00 | 0.00 | 56 | 1012.4 |
| 20260904182019 | 33 | 87 | 3.2 | 6.4 | 0.00 | 0.00 | 0.00 | 58 | 1012.4 |
| 20260904181504 | 33 | 261 | 1.6 | 6.4 | 0.00 | 0.00 | 0.00 | 57 | 1012.4 |
| 20260904181004 | 32 | 260 | 1.6 | 4.8 | 0.00 | 0.00 | 0.00 | 56 | 1012.4 |
| 20260904180506 | 33 | 319 | 0.0 | 4.8 | 0.00 | 0.00 | 0.00 | 58 | 1012.5 |
| 20260904180011 | 33 | 325 | 1.6 | 6.4 | 0.00 | 0.00 | 0.00 | 60 | 1012.5 |
| 20260904175509 | 33 | 115 | 1.6 | 6.4 | 0.00 | 0.00 | 0.00 | 59 | 1012.4 |
| 20260904175009 | 33 | 310 | 3.2 | 6.4 | 0.00 | 0.00 | 0.00 | 57 | 1012.5 |
| 20260904174510 | 33 | 163 | 1.6 | 8.0 | 0.00 | 0.00 | 0.00 | 1012.5 | |
| 20260904174008 | 33 | 327 | 1.6 | 8.0 | 0.00 | 0.00 | 0.00 | 1012.6 | |
| 20260904173510 | 32 | 343 | 3.2 | 9.7 | 0.00 | 0.00 | 0.00 | 1012.6 | |
| 20260904173012 | 32 | 171 | 3.2 | 9.7 | 0.00 | 0.00 | 0.00 | 62 | 1012.7 |
| 20260904172504 | 31 | 352 | 1.6 | 11.3 | 0.00 | 0.00 | 0.00 | 62 | 1012.7 |
| 20260904172010 | 32 | 259 | 1.6 | 11.3 | 0.00 | 0.00 | 0.00 | 59 | 1012.7 |
| 20260904171527 | 32 | 297 | 3.2 | 11.3 | 0.00 | 0.00 | 0.00 | 59 | 1012.7 |
| 20260904171016 | 32 | 327 | 1.6 | 11.3 | 0.00 | 0.00 | 0.00 | 58 | 1012.7 |
| 20260904170505 | 32 | 269 | 4.8 | 11.3 | 0.00 | 0.00 | 0.00 | 60 | 1012.6 |
| 20260904170009 | 32 | 132 | 3.2 | 4.8 | 0.00 | 0.00 | 0.00 | 60 | 1012.6 |
| 20260904165508 | 31 | 98 | 1.6 | 4.8 | 0.00 | 0.00 | 0.00 | 62 | 1012.6 |
| 20260904165007 | 31 | 222 | 1.6 | 6.4 | 0.00 | 0.00 | 0.00 | 64 | 1012.7 |
| 20260904164513 | 31 | 147 | 1.6 | 6.4 | 0.00 | 0.00 | 0.00 | 62 | 1012.7 |
| 20260904164011 | 31 | 272 | 1.6 | 6.4 | 0.00 | 0.00 | 0.00 | 65 | 1012.7 |
| 20260904163514 | 30 | 327 | 0.0 | 6.4 | 0.00 | 0.00 | 0.00 | 65 | 1012.7 |
| 20260904163013 | 30 | 263 | 3.2 | 6.4 | 0.00 | 0.00 | 0.00 | 63 | 1012.6 |
| 20260904162510 | 31 | 179 | 1.6 | 11.3 | 0.00 | 0.00 | 0.00 | 62 | 1012.5 |
| 20260904162014 | 31 | 161 | 3.2 | 11.3 | 0.00 | 0.00 | 0.00 | 62 | 1012.5 |
| 20260904161509 | 31 | 300 | 3.2 | 6.4 | 0.00 | 0.00 | 0.00 | 61 | 1012.6 |
| 20260904161013 | 31 | 22 | 1.6 | 6.4 | 0.00 | 0.00 | 0.00 | 63 | 1012.7 |
| 20260904160512 | 30 | 294 | 1.6 | 6.4 | 0.00 | 0.00 | 0.00 | 64 | 1012.7 |
| 20260904160017 | 30 | 203 | 1.6 | 6.4 | 0.00 | 0.00 | 0.00 | 64 | 1012.8 |
| 20260904155516 | 30 | 310 | 1.6 | 6.4 | 0.00 | 0.00 | 0.00 | 64 | 1012.8 |
| 20260904155006 | 30 | 269 | 1.6 | 8.0 | 0.00 | 0.00 | 0.00 | 64 | 1012.8 |
| 20260904154508 | 30 | 307 | 1.6 | 8.0 | 0.00 | 0.00 | 0.00 | 66 | 1012.8 |
| 20260904154006 | 30 | 189 | 1.6 | 6.4 | 0.00 | 0.00 | 0.00 | 65 | 1012.7 |
| 20260904153511 | 30 | 180 | 1.6 | 6.4 | 0.00 | 0.00 | 0.00 | 65 | 1012.7 |
| 20260904153020 | 30 | 213 | 1.6 | 6.4 | 0.00 | 0.00 | 0.00 | 65 | 1012.7 |
| 20260904152502 | 30 | 102 | 0.0 | 6.4 | 0.00 | 0.00 | 0.00 | 66 | 1012.7 |
| 20260904152010 | 29 | 143 | 1.6 | 6.4 | 0.00 | 0.00 | 0.00 | 66 | 1012.6 |
| 20260904151508 | 29 | 339 | 3.2 | 8.0 | 0.00 | 0.00 | 0.00 | 68 | 1012.7 |
| 20260904151013 | 28 | 333 | 1.6 | 8.0 | 0.00 | 0.00 | 0.00 | 67 | 1012.7 |
| 20260904150503 | 28 | 34 | 1.6 | 4.8 | 0.00 | 0.00 | 0.00 | 67 | 1012.7 |
| 20260904150015 | 28 | 292 | 0.0 | 4.8 | 0.00 | 0.00 | 0.00 | 70 | 1012.7 |
| 20260904145504 | 28 | 180 | 1.6 | 4.8 | 0.00 | 0.00 | 0.00 | 68 | 1012.7 |
| 20260904145005 | 28 | 188 | 1.6 | 4.8 | 0.00 | 0.00 | 0.00 | 68 | 1012.8 |
| 20260904144502 | 28 | 273 | 1.6 | 4.8 | 0.00 | 0.00 | 0.00 | 69 | 1012.7 |
| 20260904144008 | 28 | 269 | 1.6 | 4.8 | 0.00 | 0.00 | 0.00 | 69 | 1012.8 |
| 20260904143504 | 28 | 346 | 1.6 | 6.4 | 0.00 | 0.00 | 0.00 | 70 | 1012.7 |
| 20260904143010 | 27 | 188 | 0.0 | 6.4 | 0.00 | 0.00 | 0.00 | 70 | 1012.7 |
| 20260904142510 | 27 | 223 | 1.6 | 4.8 | 0.00 | 0.00 | 0.00 | 70 | 1012.7 |
| 20260904142003 | 27 | 283 | 0.0 | 3.2 | 0.00 | 0.00 | 0.00 | 72 | 1012.7 |
| 20260904141508 | 27 | 173 | 1.6 | 4.8 | 0.00 | 0.00 | 0.00 | 70 | 1012.7 |
| 20260904141010 | 27 | 159 | 0.0 | 4.8 | 0.00 | 0.00 | 0.00 | 71 | 1012.7 |
| 20260904140503 | 27 | 225 | 0.0 | 3.2 | 0.00 | 0.00 | 0.00 | 71 | 1012.7 |
| 20260904140019 | 27 | 225 | 1.6 | 3.2 | 0.00 | 0.00 | 0.00 | 72 | 1012.7 |
| 20260904135504 | 27 | 286 | 0.0 | 6.4 | 0.00 | 0.00 | 0.00 | 72 | 1012.7 |
| 20260904135004 | 27 | 172 | 1.6 | 6.4 | 0.00 | 0.00 | 0.00 | 72 | 1012.7 |
| 20260904134507 | 26 | 111 | 0.0 | 3.2 | 0.00 | 0.00 | 0.00 | 73 | 1012.6 |
| 20260904134002 | 26 | 198 | 0.0 | 3.2 | 0.00 | 0.00 | 0.00 | 73 | 1012.6 |
| 20260904133507 | 26 | 242 | 0.0 | 6.4 | 0.00 | 0.00 | 0.00 | 73 | 1012.5 |
| 20260904133011 | 26 | 216 | 3.2 | 6.4 | 0.00 | 0.00 | 0.00 | 73 | 1012.4 |
| 20260904132510 | 26 | 192 | 1.6 | 6.4 | 0.00 | 0.00 | 0.00 | 73 | 1012.3 |
| 20260904132005 | 26 | 171 | 1.6 | 6.4 | 0.00 | 0.00 | 0.00 | 73 | 1012.3 |
| 20260904131510 | 26 | 182 | 0.0 | 3.2 | 0.00 | 0.00 | 0.00 | 73 | 1012.2 |
| 20260904131013 | 26 | 182 | 0.0 | 3.2 | 0.00 | 0.00 | 0.00 | 75 | 1012.1 |
| 20260904130505 | 26 | 121 | 0.0 | 3.2 | 0.00 | 0.00 | 0.00 | 75 | 1012.1 |
| 20260904130007 | 26 | 112 | 0.0 | 3.2 | 0.00 | 0.00 | 0.00 | 75 | 1012.1 |
| 20260904125512 | 26 | 214 | 0.0 | 3.2 | 0.00 | 0.00 | 0.00 | 77 | 1012.0 |
| 20260904125016 | 25 | 214 | 0.0 | 3.2 | 0.00 | 0.00 | 0.00 | 77 | 1012.0 |
| 20260904124508 | 25 | 215 | 0.0 | 3.2 | 0.00 | 0.00 | 0.00 | 78 | 1011.9 |
| 20260904124005 | 25 | 215 | 0.0 | 3.2 | 0.00 | 0.00 | 0.00 | 77 | 1011.8 |
| 20260904123508 | 25 | 154 | 0.0 | 3.2 | 0.00 | 0.00 | 0.00 | 78 | 1011.7 |
| 20260904123007 | 25 | 154 | 0.0 | 3.2 | 0.00 | 0.00 | 0.00 | 77 | 1011.6 |
| 20260904122656 | 25 | 154 | 0.0 | 3.2 | 0.00 | 0.00 | 0.00 | 77 | 1011.6 |
| 20260904122651 | 25 | 153 | 0.0 | 3.2 | 0.00 | 0.00 | 0.00 | 76 | 1011.6 |
| 20260904122647 | 25 | 153 | 0.0 | 3.2 | 0.00 | 0.00 | 0.00 | 76 | 1011.6 |
| 20260904122644 | 25 | 153 | 0.0 | 3.2 | 0.00 | 0.00 | 0.00 | 77 | 1011.6 |
| 20260904120511 | 25 | 153 | 0.0 | 3.2 | 0.00 | 0.00 | 0.00 | 77 | 1011.6 |
| 20260904120020 | 25 | 153 | 0.0 | 3.2 | 0.00 | 0.00 | 0.00 | 76 | 1011.5 |
| 20260904115509 | 25 | 153 | 0.0 | 3.2 | 0.00 | 0.00 | 0.00 | 76 | 1011.5 |
| 20260904115009 | 25 | 153 | 0.0 | 3.2 | 0.00 | 0.00 | 0.00 | 75 | 1011.5 |
| 20260904114520 | 25 | 153 | 0.0 | 1.6 | 0.00 | 0.00 | 0.00 | 75 | 1011.5 |
| 20260904114007 | 25 | 153 | 0.0 | 3.2 | 0.00 | 0.00 | 0.00 | 75 | 1011.5 |
| 20260904113506 | 25 | 153 | 0.0 | 3.2 | 0.00 | 0.00 | 0.00 | 74 | 1011.5 |
| 20260904113020 | 25 | 138 | 0.0 | 3.2 | 0.00 | 0.00 | 0.00 | 74 | 1011.5 |
| 20260904112507 | 25 | 154 | 0.0 | 3.2 | 0.00 | 0.00 | 0.00 | 74 | 1011.5 |
| 20260904112007 | 25 | 182 | 0.0 | 3.2 | 0.00 | 0.00 | 0.00 | 73 | 1011.5 |
| 20260904111517 | 26 | 180 | 0.0 | 3.2 | 0.00 | 0.00 | 0.00 | 73 | 1011.5 |
| 20260904111010 | 26 | 198 | 0.0 | 3.2 | 0.00 | 0.00 | 0.00 | 73 | 1011.5 |
| 20260904110512 | 26 | 196 | 0.0 | 3.2 | 0.00 | 0.00 | 0.00 | 72 | 1011.5 |
| 20260904110010 | 26 | 181 | 0.0 | 4.8 | 0.00 | 0.00 | 0.00 | 72 | 1011.5 |
| 20260904105512 | 26 | 173 | 0.0 | 4.8 | 0.00 | 0.00 | 0.00 | 72 | 1011.4 |
| 20260904105012 | 26 | 150 | 0.0 | 6.4 | 0.00 | 0.00 | 0.00 | 72 | 1011.4 |
| 20260904104528 | 26 | 165 | 0.0 | 8.0 | 0.00 | 0.00 | 0.00 | 71 | 1011.3 |
| 20260904104012 | 26 | 256 | 0.0 | 8.0 | 0.00 | 0.00 | 0.00 | 71 | 1011.3 |
| 20260904103511 | 26 | 204 | 0.0 | 6.4 | 0.00 | 0.00 | 0.00 | 70 | 1011.4 |
| 20260904103041 | 26 | 328 | 1.6 | 6.4 | 0.00 | 0.00 | 0.00 | 70 | 1011.4 |
| 20260904102506 | 26 | 194 | 1.6 | 4.8 | 0.00 | 0.00 | 0.00 | 70 | 1011.4 |
| 20260904102006 | 26 | 137 | 1.6 | 4.8 | 0.00 | 0.00 | 0.00 | 70 | 1011.4 |
| 20260904101514 | 26 | 322 | 0.0 | 6.4 | 0.00 | 0.00 | 0.00 | 69 | 1011.3 |
| 20260904101009 | 27 | 248 | 1.6 | 6.4 | 0.00 | 0.03 | 0.00 | 69 | 1011.3 |
| 20260904100512 | 27 | 306 | 3.2 | 6.4 | 0.00 | 0.05 | 0.00 | 68 | 1011.3 |
| 20260904100018 | 27 | 123 | 1.6 | 8.0 | 0.00 | 0.05 | 0.00 | 68 | 1011.3 |
| 20260904095512 | 27 | 197 | 1.6 | 9.7 | 0.00 | 0.05 | 0.00 | 68 | 1011.2 |
| 20260904095012 | 27 | 242 | 3.2 | 12.9 | 0.00 | 0.05 | 0.00 | 68 | 1011.2 |
| 20260904094521 | 27 | 293 | 4.8 | 12.9 | 0.00 | 0.05 | 0.00 | 68 | 1011.1 |
| 20260904094007 | 27 | 207 | 3.2 | 11.3 | 0.00 | 0.05 | 0.00 | 68 | 1011.2 |
| 20260904093515 | 27 | 322 | 3.2 | 9.7 | 0.00 | 0.05 | 0.00 | 68 | 1011.1 |
| 20260904093018 | 27 | 157 | 1.6 | 9.7 | 0.00 | 0.05 | 0.00 | 67 | 1011.0 |
| 20260904092512 | 27 | 274 | 1.6 | 9.7 | 0.00 | 0.05 | 0.00 | 67 | 1011.0 |
| 20260904092016 | 27 | 211 | 3.2 | 9.7 | 0.00 | 0.05 | 0.00 | 67 | 1010.9 |
| 20260904091516 | 27 | 168 | 0.0 | 6.4 | 0.00 | 0.05 | 0.00 | 67 | 1010.8 |
| 20260904091015 | 27 | 245 | 1.6 | 8.0 | 0.00 | 0.05 | 0.00 | 67 | 1010.8 |
| 20260904090513 | 27 | 126 | 1.6 | 11.3 | 0.00 | 0.05 | 0.00 | 67 | 1010.8 |
| 20260904090014 | 27 | 184 | 3.2 | 11.3 | 0.00 | 0.05 | 0.00 | 67 | 1010.7 |
| 20260904085511 | 27 | 266 | 3.2 | 6.4 | 0.00 | 0.05 | 0.00 | 67 | 1010.7 |
| 20260904085013 | 27 | 304 | 1.6 | 11.3 | 0.00 | 0.05 | 0.00 | 67 | 1010.8 |
| 20260904084524 | 27 | 352 | 3.2 | 11.3 | 0.00 | 0.05 | 0.00 | 67 | 1010.7 |
| 20260904084013 | 27 | 153 | 3.2 | 8.0 | 0.00 | 0.05 | 0.00 | 67 | 1010.7 |
| 20260904083513 | 27 | 194 | 1.6 | 9.7 | 0.00 | 0.05 | 0.00 | 67 | 1010.7 |
| 20260904083034 | 27 | 321 | 1.6 | 9.7 | 0.00 | 0.05 | 0.00 | 66 | 1010.7 |
| 20260904082516 | 27 | 188 | 3.2 | 9.7 | 0.00 | 0.05 | 0.00 | 66 | 1010.6 |
| 20260904082012 | 27 | 285 | 1.6 | 8.0 | 0.00 | 0.05 | 0.00 | 66 | 1010.6 |
| 20260904081522 | 27 | 138 | 1.6 | 12.9 | 0.00 | 0.05 | 0.00 | 66 | 1010.6 |
| 20260904081013 | 27 | 254 | 4.8 | 12.9 | 0.00 | 0.05 | 0.00 | 66 | 1010.6 |
| 20260904080517 | 27 | 163 | 1.6 | 14.5 | 0.00 | 0.05 | 0.00 | 66 | 1010.7 |
| 20260904080025 | 27 | 136 | 3.2 | 12.9 | 0.00 | 0.05 | 0.00 | 65 | 1010.7 |
| 20260904075514 | 27 | 81 | 1.6 | 8.0 | 0.00 | 0.05 | 0.00 | 66 | 1010.7 |
| 20260904075018 | 27 | 265 | 3.2 | 8.0 | 0.00 | 0.05 | 0.00 | 65 | 1010.7 |
| 20260904074537 | 27 | 164 | 1.6 | 12.9 | 0.00 | 0.05 | 0.00 | 65 | 1010.8 |
| 20260904074013 | 27 | 178 | 3.2 | 12.9 | 0.00 | 0.05 | 0.00 | 65 | 1010.7 |
| 20260904073513 | 27 | 157 | 3.2 | 8.0 | 0.00 | 0.05 | 0.00 | 65 | 1010.7 |
| 20260904073034 | 27 | 317 | 1.6 | 8.0 | 0.00 | 0.05 | 0.00 | 66 | 1010.8 |
| 20260904072513 | 27 | 223 | 1.6 | 8.0 | 0.00 | 0.05 | 0.00 | 66 | 1010.7 |
| 20260904072016 | 27 | 332 | 1.6 | 8.0 | 0.00 | 0.05 | 0.00 | 66 | 1010.7 |
| 20260904071522 | 27 | 337 | 1.6 | 6.4 | 0.00 | 0.05 | 0.00 | 66 | 1010.7 |
| 20260904071018 | 27 | 240 | 0.0 | 8.0 | 0.00 | 0.05 | 0.00 | 66 | 1010.8 |
| 20260904070504 | 27 | 190 | 0.0 | 11.3 | 0.00 | 0.05 | 0.00 | 65 | 1010.8 |
| 20260904070002 | 27 | 174 | 1.6 | 11.3 | 0.00 | 0.05 | 0.00 | 65 | 1010.8 |
| 20260904065503 | 27 | 49 | 1.6 | 4.8 | 0.00 | 0.05 | 0.00 | 65 | 1010.8 |
| 20260904065002 | 27 | 55 | 0.0 | 9.7 | 0.00 | 0.05 | 0.00 | 65 | 1010.7 |
| 20260904064510 | 27 | 121 | 1.6 | 9.7 | 0.00 | 0.05 | 0.00 | 65 | 1010.8 |
| 20260904064002 | 27 | 199 | 0.0 | 9.7 | 0.00 | 0.05 | 0.00 | 65 | 1010.9 |
| 20260904063504 | 27 | 147 | 1.6 | 9.7 | 0.00 | 0.05 | 0.00 | 64 | 1010.8 |